[[{"header":{"parameterUnit":"m.s-1","parameterCategory":1,"la1":30.2991,"la2":30.254,"lo1":-89.0895,"lo2":-89.0444,"dy":0.0017,"dx":0.0017,"nx":28,"ny":28,"refTime":"2025-06-17T09:00:00:Z","depth":0,"parameterNumber":2,"parameterNumberName":"U-component_of_WINDS"},"data":[0,0,0,0,0,0,0,0,0,0,0,0,0,0,0,0,0,0,0,0,0,0,0,0,0,0,0,0,0,0,0,0,0,0,0,0,0,0,0,0,0,0,0,0,0,0,0,0,0,0,0,0,0,0,0,0,0,0,0.7858,0.7859,0,0.7949,0.795,0.7951,0.7962,0.7961,0.796,0.7959,0.8049,0.8052,0.8055,0,0,0,0,0,0,0,0,0,0,0,0,0,0.7693,0.7696,0.7858,0.7859,0.786,0.7948,0.795,0.7951,0.7962,0.7961,0.796,0.7959,0.8048,0.8052,0.8056,0,0,0,0,0,0,0,0,0,0,0,0,0,0.7772,0.7697,0.7858,0.7877,0.7879,0.7948,0.795,0.7951,0.7962,0.7961,0.7959,0.7958,0.8047,0.8051,0.8056,0.8112,0,0,0.8071,0.8073,0,0,0,0,0,0,0,0,0.7768,0.7778,0.7873,0.7875,0.7878,0.7943,0.7925,0.8005,0.7962,0.7931,0.7959,0.7958,0.8015,0.8022,0.8042,0.8116,0.812,0.8071,0.8074,0.8076,0.8078,0,0,0,0,0,0,0,0.7762,0.7775,0.7894,0.7874,0.7878,0.788,0.789,0.794,0.7979,0.7933,0.7934,0.7945,0.8016,0.8037,0.8044,0.8121,0.8071,0.8075,0.8078,0.808,0.8248,0.825,0,0,0,0,0,0,0.7754,0.777,0.7891,0.7897,0.7819,0.7884,0.7895,0.7923,0.7978,0.7985,0.7946,0.7945,0.8029,0.8038,0.8047,0.8118,0.8076,0.8081,0.8084,0.8247,0.8249,0.825,0,0,0,0,0,0,0.775,0.7765,0.7887,0.7834,0.7849,0.7888,0.792,0.7926,0.7947,0.7988,0.7995,0.7961,0.8029,0.804,0.8096,0.8121,0.8083,0.8087,0.8245,0.8247,0.825,0.8258,0,0,0,0,0,0,0.7745,0.7763,0.7785,0.7834,0.7852,0.7936,0.7921,0.7928,0.7956,0.7955,0.8003,0.801,0.8029,0.8089,0.8101,0.8127,0.8091,0.8243,0.8246,0.8249,0.8256,0.8261,0.8265,0,0,0,0,0,0.774,0.7783,0.7786,0.7801,0.7881,0.7937,0.7947,0.7969,0.7957,0.798,0.8006,0.8009,0.8116,0.8095,0.8108,0.8136,0.8241,0.8245,0.8249,0.8254,0.826,0.8264,0,0,0,0,0,0,0.7734,0.779,0.7794,0.7855,0.7891,0.7939,0.7968,0.7974,0.8014,0.8012,0.8035,0.8046,0.8102,0.8124,0.8099,0.8194,0.8178,0.8184,0.8177,0.8183,0.8187,0.8181,0.8095,0,0,0,0,0,0.7741,0.7783,0.7828,0.7877,0.7896,0.7929,0.7954,0.7967,0.8006,0.8021,0.8051,0.8088,0.8131,0.8158,0.8199,0.8259,0.827,0.8285,0.8289,0.8292,0.8298,0.8333,0.834,0.8262,0.8262,0.8262,0,0,0.7753,0.7789,0.7813,0.7877,0.7907,0.795,0.7941,0.7986,0.8018,0.8027,0.8083,0.8107,0.8149,0.8208,0.8236,0.8229,0.8322,0.8297,0.8299,0.8303,0.8337,0.8345,0.8351,0.8264,0.8264,0.8264,0,0,0.7799,0.7829,0.7875,0.7905,0.7951,0.7973,0.7984,0.8031,0.8048,0.8104,0.8113,0.815,0.8222,0.8253,0.8278,0.8336,0.834,0.8349,0.8372,0.8406,0.8412,0.8417,0.844,0.8447,0.8354,0.8354,0.8354,0,0.7808,0.7874,0.7897,0.7943,0.7971,0.7982,0.8028,0.8056,0.8113,0.8132,0.8124,0.8215,0.8245,0.8312,0.8326,0.8346,0.8359,0.8344,0.8409,0.8415,0.8421,0.8442,0.845,0.8355,0.8355,0.8355,0.8355,0,0.7884,0.793,0.796,0.8017,0.8048,0.8094,0.8123,0.8152,0.8163,0.8186,0.8244,0.8279,0.8329,0.8345,0.8355,0.8414,0.8409,0.8404,0.8389,0.8429,0.8449,0.8458,0.8356,0.8356,0.8355,0.8355,0,0,0.7929,0.7998,0.8009,0.8036,0.8088,0.8123,0.817,0.8219,0.8244,0.8283,0.8323,0.8384,0.8381,0.8409,0.8423,0.8452,0.8499,0.8445,0.8446,0.8455,0.8567,0.8571,0.858,0.8501,0.8503,0.8504,0.8564,0,0.7981,0.8065,0.8088,0.8159,0.8202,0.8214,0.8254,0.8291,0.8313,0.8352,0.8377,0.842,0.8412,0.843,0.846,0.8487,0.8522,0.8482,0.8539,0.8541,0.8529,0.8591,0.8595,0.8649,0.8572,0.8573,0.8574,0,0.8053,0.8096,0.8172,0.822,0.8239,0.8275,0.8323,0.836,0.8402,0.8416,0.8449,0.846,0.8509,0.849,0.8558,0.8531,0.8555,0.8572,0.8575,0.8582,0.8561,0.86,0.8667,0.8676,0.8587,0.8586,0.8585,0,0.808,0.8155,0.8212,0.8233,0.8291,0.8316,0.8341,0.8382,0.8411,0.8452,0.8471,0.8517,0.8543,0.8578,0.8602,0.8586,0.8668,0.8651,0.8682,0.8681,0.8699,0.8698,0.8772,0.8713,0.8713,0.8712,0.8712,0,0.8137,0.8183,0.8225,0.8259,0.8311,0.8337,0.8388,0.8413,0.8449,0.8488,0.8501,0.8537,0.8566,0.8606,0.8625,0.8679,0.869,0.8703,0.8708,0.8703,0.8701,0.872,0.8717,0.8715,0.8714,0.8714,0.8713,0,0.8175,0.8205,0.8267,0.8317,0.8331,0.8367,0.841,0.8444,0.8467,0.8517,0.853,0.8566,0.8615,0.8642,0.8702,0.8715,0.8776,0.8777,0.8762,0.8764,0.8794,0.8791,0.8883,0.8897,0.8828,0.8828,0.8829,0,0.821,0.8246,0.8301,0.8329,0.8355,0.84,0.843,0.8456,0.8487,0.8538,0.8566,0.8615,0.8656,0.8733,0.8765,0.8811,0.8815,0.8844,0.8822,0.8817,0.8817,0.8815,0.882,0.8848,0.8849,0.8849,0.885,0,0.8269,0.8283,0.8326,0.8376,0.8412,0.8451,0.849,0.8512,0.8545,0.8579,0.8629,0.8661,0.8724,0.8773,0.8822,0.8848,0.8855,0.8857,0.8866,0.8862,0.8852,0.886,0.8774,0.8854,0.8854,0.8854,0.8853,0.8853,0.8308,0.8342,0.8386,0.8435,0.8467,0.8504,0.8539,0.8568,0.8611,0.8665,0.8677,0.8731,0.8772,0.884,0.8866,0.8908,0.8903,0.8917,0.892,0.8924,0.8926,0.8845,0.8917,0.8917,0.8917,0.8917,0.8917,0,0.8369,0.8399,0.8443,0.8499,0.8537,0.8541,0.8585,0.8617,0.8664,0.8703,0.8744,0.8803,0.8851,0.8887,0.8936,0.8963,0.8967,0.8975,0.8974,0.898,0.8927,0.8914,0.8971,0.8971,0.8971,0.8971,0.8971,0.897,0.8405,0.8463,0.8482,0.8556,0.8585,0.8639,0.8664,0.8698,0.8729,0.8795,0.8836,0.8859,0.8897,0.8949,0.8994,0.9003,0.9021,0.9029,0.9039,0.8989,0.8983,0.8978,0.8966,0.9032,0.9032,0.9088,0.9089,0.9089]},{"header":{"parameterUnit":"m.s-1","parameterCategory":1,"la1":30.2991,"la2":30.254,"lo1":-89.0895,"lo2":-89.0444,"dy":0.0017,"dx":0.0017,"nx":28,"ny":28,"refTime":"2025-06-17T09:00:00:Z","depth":0,"parameterNumber":3,"parameterNumberName":"V-component_of_WINDS"},"data":[0,0,0,0,0,0,0,0,0,0,0,0,0,0,0,0,0,0,0,0,0,0,0,0,0,0,0,0,0,0,0,0,0,0,0,0,0,0,0,0,0,0,0,0,0,0,0,0,0,0,0,0,0,0,0,0,0,0,5.1986,5.1985,0,5.1916,5.1915,5.1914,5.1859,5.1858,5.1858,5.1857,5.178,5.1778,5.1777,0,0,0,0,0,0,0,0,0,0,0,0,0,5.2067,5.2066,5.1986,5.1985,5.1984,5.1916,5.1915,5.1914,5.1859,5.1858,5.1858,5.1857,5.178,5.1779,5.1777,0,0,0,0,0,0,0,0,0,0,0,0,0,5.2018,5.2066,5.1986,5.1949,5.1945,5.1916,5.1915,5.1914,5.1859,5.1858,5.1858,5.1857,5.1781,5.1779,5.1776,5.1778,0,0,5.1769,5.1768,0,0,0,0,0,0,0,0,5.2021,5.2015,5.1955,5.1951,5.1947,5.1896,5.1915,5.1868,5.1859,5.1891,5.1857,5.1856,5.1819,5.1813,5.1802,5.1774,5.1771,5.1769,5.1768,5.1767,5.1766,0,0,0,0,0,0,0,5.2024,5.2018,5.1958,5.1954,5.1949,5.1934,5.1926,5.1906,5.186,5.1889,5.1884,5.1877,5.1816,5.1804,5.1799,5.177,5.1769,5.1767,5.1766,5.1765,5.1741,5.1742,0,0,0,0,0,0,5.2034,5.2021,5.196,5.1956,5.1983,5.1933,5.1924,5.1913,5.186,5.1852,5.1878,5.1875,5.1808,5.1802,5.1796,5.1795,5.1767,5.1764,5.1763,5.174,5.1741,5.1742,0,0,0,0,0,0,5.2036,5.2029,5.1963,5.1987,5.1978,5.1933,5.192,5.1912,5.19,5.1852,5.1843,5.1874,5.1808,5.18,5.1784,5.1792,5.1763,5.1761,5.1739,5.1741,5.1742,5.1793,0,0,0,0,0,0,5.2039,5.2031,5.2032,5.1988,5.1977,5.1953,5.192,5.1911,5.1896,5.1892,5.1847,5.1838,5.1806,5.1787,5.1781,5.1788,5.1759,5.1738,5.174,5.1741,5.1791,5.1796,5.1801,0,0,0,0,0,5.2042,5.2048,5.2032,5.2025,5.1978,5.1954,5.1947,5.1912,5.1897,5.1897,5.1867,5.184,5.1792,5.1786,5.1779,5.1785,5.1738,5.1739,5.1741,5.1788,5.1795,5.1801,0,0,0,0,0,0,5.2091,5.2041,5.2023,5.2015,5.199,5.1945,5.1944,5.192,5.1896,5.1893,5.1848,5.1838,5.1827,5.1804,5.1799,5.1784,5.1761,5.1762,5.18,5.1806,5.1811,5.1816,5.1758,0,0,0,0,0,5.2102,5.2088,5.2044,5.2041,5.2029,5.1989,5.1977,5.1953,5.1923,5.1912,5.188,5.1851,5.183,5.1816,5.1794,5.1787,5.1776,5.1788,5.1793,5.1797,5.1798,5.1794,5.1798,5.1748,5.1748,5.1748,0,0,5.2122,5.2093,5.2086,5.205,5.2028,5.2013,5.198,5.1966,5.1955,5.1909,5.1892,5.1868,5.1833,5.1822,5.1816,5.1803,5.181,5.18,5.1804,5.1802,5.1796,5.1801,5.1805,5.1749,5.1749,5.1749,0,0,5.2152,5.2129,5.2124,5.2103,5.2069,5.2043,5.2042,5.2001,5.1984,5.1967,5.1933,5.1917,5.1881,5.1858,5.1842,5.1865,5.1838,5.1858,5.1885,5.1881,5.1885,5.1888,5.1896,5.19,5.1859,5.1859,5.1859,0,5.2181,5.216,5.2124,5.2113,5.2098,5.2058,5.2053,5.2033,5.1993,5.1983,5.197,5.1925,5.1898,5.1882,5.1888,5.1875,5.1872,5.1863,5.1887,5.189,5.1893,5.19,5.1904,5.1862,5.1862,5.1861,5.1861,0,5.2197,5.2183,5.2183,5.2149,5.2134,5.2125,5.2088,5.2076,5.2053,5.2028,5.2011,5.1978,5.1949,5.1943,5.1919,5.1923,5.1917,5.1896,5.1872,5.1901,5.1907,5.191,5.1866,5.1865,5.1864,5.1863,0,0,5.2255,5.2203,5.2204,5.2188,5.2149,5.2136,5.2126,5.21,5.2091,5.2065,5.2055,5.2026,5.2008,5.1989,5.1962,5.1959,5.198,5.1938,5.1937,5.1948,5.1983,5.1999,5.2003,5.1962,5.1963,5.1963,5.1986,0,5.228,5.2261,5.223,5.2221,5.2207,5.217,5.2161,5.2135,5.2111,5.2095,5.2067,5.2048,5.2025,5.2013,5.2008,5.1979,5.1986,5.1976,5.1952,5.1951,5.1962,5.2006,5.2023,5.2046,5.1988,5.1988,5.1989,0,5.2305,5.2284,5.2275,5.2238,5.2231,5.2224,5.2198,5.2183,5.2153,5.2136,5.2116,5.2088,5.2074,5.2053,5.2033,5.2027,5.2014,5.1998,5.1998,5.1995,5.1972,5.2004,5.2052,5.2056,5.1992,5.1992,5.1992,0,5.2349,5.2318,5.2309,5.2297,5.2253,5.2249,5.2231,5.22,5.2187,5.2163,5.2154,5.2128,5.2114,5.2094,5.206,5.2047,5.2043,5.2019,5.2028,5.2029,5.2029,5.2029,5.2076,5.2021,5.2021,5.2021,5.2021,0,5.238,5.2375,5.2329,5.2323,5.2317,5.228,5.2275,5.2253,5.2226,5.2215,5.2179,5.2169,5.2124,5.2107,5.208,5.2068,5.2061,5.2046,5.2039,5.205,5.2052,5.2041,5.2039,5.2022,5.2021,5.2021,5.2021,0,5.2428,5.2396,5.2384,5.2345,5.2335,5.2333,5.2298,5.2291,5.2265,5.2251,5.2246,5.2205,5.2184,5.2148,5.2116,5.2097,5.2091,5.2078,5.2102,5.2098,5.2109,5.2109,5.2151,5.2155,5.2097,5.2098,5.2098,0,5.2449,5.2446,5.2407,5.2398,5.2382,5.2367,5.2354,5.2317,5.2305,5.2271,5.2268,5.2245,5.2225,5.2194,5.216,5.2136,5.2122,5.2139,5.2118,5.213,5.2123,5.2124,5.2124,5.2144,5.2145,5.2145,5.2146,0,5.2491,5.2477,5.246,5.2439,5.2425,5.2405,5.2384,5.2378,5.2336,5.2324,5.2304,5.2288,5.2257,5.2235,5.2206,5.2185,5.2158,5.2153,5.2154,5.2165,5.2179,5.2172,5.2115,5.2152,5.2151,5.2151,5.215,5.215,5.2527,5.2523,5.2496,5.2478,5.2459,5.244,5.2432,5.2407,5.239,5.2364,5.2342,5.2324,5.2294,5.2253,5.2234,5.2218,5.2206,5.2207,5.2207,5.2208,5.2213,5.2182,5.2213,5.2212,5.2212,5.2212,5.2212,0,5.2568,5.2549,5.2534,5.2506,5.2493,5.2472,5.2447,5.2437,5.2422,5.2397,5.2379,5.2356,5.2335,5.2301,5.2276,5.227,5.2258,5.2265,5.2265,5.2261,5.2225,5.2227,5.2276,5.2276,5.2276,5.2276,5.2276,5.2276,5.2587,5.2579,5.2561,5.2543,5.2523,5.2507,5.2495,5.2477,5.2458,5.2435,5.2418,5.2397,5.2368,5.2342,5.2321,5.2311,5.2304,5.2316,5.2302,5.2269,5.2263,5.2258,5.2259,5.2314,5.2314,5.2339,5.234,5.234]}]]